Harlan, KY

4:11 PM EST on November 14, 2019 (GMT -0500)
Harlan

Weather History for KI35 - September, 2019

Change the Weather History Date:

Wednesday, September 25, 2019

  Actual Average (KLOZ) Record (KLOZ)
Temperature  
Mean Temperature 66 °F -  
Max Temperature 85 °F 75 °F 90 °F (1961)
Min Temperature 47 °F 52 °F 35 °F (1965)
Growing Degree Days 16 (Base 50)    
Moisture  
Dew Point 50 °F    
Average Humidity 65    
Maximum Humidity 99    
Minimum Humidity 23    
Precipitation  
Precipitation 0.00 in - - ()
Sea Level Pressure  
Sea Level Pressure 29.96 in    
Wind  
Wind Speed 2 mph ()    
Max Wind Speed 9 mph    
Max Gust Speed -    
Visibility 10.0 miles    
Events      
Averages and records for this station are not official NWS values.
T = Trace of Precipitation, MM = Missing Value Source: Averaged Metar Reports

Daily Weather History Graph

Daily Weather History Graph

Search for Another Location

Airport or City:

Astronomy

Sep. 25, 2019 Rise Set
Actual Time 7:23 AM EDT 7:26 PM EDT
Civil Twilight 6:57 AM EDT 7:51 PM EDT
Nautical Twilight 6:27 AM EDT 8:22 PM EDT
Astronomical Twilight 5:57 AM EDT 8:52 PM EDT
Moon 3:24 AM EDT (9/25) 5:50 PM EDT (9/25)
Length of Visible Light 12h 54m
Length of Day
12h 02m
Waning Crescent, 14% of the Moon is Illuminated
Sep 25
Waning Crescent
Sep 28
New
Oct 5
First Quarter
Oct 13
Full
Oct 21
Last Quarter

Hourly Weather History & Observations

Time (EDT) Temp. Dew Point Humidity Pressure Visibility Wind Dir Wind Speed Gust Speed Precip Events Conditions
12:15 AM 53.1 °F 50.9 °F 92% 29.98 in 10.0 mi Calm Calm - N/A   Clear
12:35 AM 53.6 °F 49.8 °F 87% 29.98 in 10.0 mi ENE 5.8 mph - N/A   Clear
12:55 AM 53.8 °F 49.6 °F 86% 29.97 in 10.0 mi ENE 3.5 mph - N/A   Clear
1:15 AM 52.2 °F 50.0 °F 92% 29.96 in 10.0 mi ENE 3.5 mph - N/A   Clear
1:35 AM 52.9 °F 50.2 °F 91% 29.96 in 10.0 mi Calm Calm - N/A   Clear
1:55 AM 52.9 °F 50.0 °F 90% 29.96 in 10.0 mi East 3.5 mph - N/A   Clear
2:15 AM 52.0 °F 49.6 °F 92% 29.96 in 10.0 mi Calm Calm - N/A   Clear
2:35 AM 51.4 °F 49.8 °F 94% 29.96 in 10.0 mi Calm Calm - N/A   Clear
2:55 AM 51.1 °F 49.6 °F 95% 29.96 in 10.0 mi Calm Calm - N/A   Clear
3:15 AM 50.5 °F 49.5 °F 96% 29.96 in 10.0 mi Calm Calm - N/A   Clear
3:35 AM 50.2 °F 49.3 °F 97% 29.96 in 10.0 mi Calm Calm - N/A   Clear
3:55 AM 49.5 °F 48.9 °F 98% 29.96 in 10.0 mi East 3.5 mph - N/A   Clear
4:15 AM 50.2 °F 49.1 °F 96% 29.96 in 10.0 mi Calm Calm - N/A   Clear
4:35 AM 49.5 °F 48.9 °F 98% 29.96 in 10.0 mi Calm Calm - N/A   Clear
4:55 AM 49.3 °F 48.7 °F 98% 29.97 in 10.0 mi Calm Calm - N/A   Clear
5:15 AM 49.1 °F 48.6 °F 98% 29.97 in 10.0 mi Calm Calm - N/A   Clear
5:35 AM 48.9 °F 48.4 °F 98% 29.98 in 10.0 mi East 3.5 mph - N/A   Clear
5:55 AM 49.1 °F 48.6 °F 98% 29.98 in 10.0 mi Calm Calm - N/A   Clear
6:35 AM 48.6 °F 48.2 °F 99% 29.98 in 10.0 mi Calm Calm - N/A   Clear
6:55 AM 48.2 °F 47.7 °F 98% 29.98 in 10.0 mi Calm Calm - N/A   Clear
7:15 AM 47.8 °F 47.5 °F 99% 30.00 in 10.0 mi Calm Calm - N/A   Clear
7:35 AM 47.7 °F 47.3 °F 99% 29.99 in 10.0 mi Calm Calm - N/A   Clear
7:55 AM 48.0 °F 47.5 °F 98% 30.00 in 10.0 mi Calm Calm - N/A   Clear
8:15 AM 48.4 °F 48.2 °F 99% 30.00 in 10.0 mi Calm Calm - N/A   Clear
8:35 AM 49.3 °F 48.7 °F 98% 30.00 in 10.0 mi Calm Calm - N/A   Clear
8:55 AM 51.8 °F 49.5 °F 92% 30.01 in 10.0 mi Calm Calm - N/A   Clear
9:15 AM 53.6 °F 50.2 °F 88% 30.00 in 10.0 mi Calm Calm - N/A   Clear
9:55 AM 58.5 °F 50.9 °F 76% 30.00 in 10.0 mi Calm Calm - N/A   Clear
10:15 AM 60.3 °F 50.9 °F 71% 30.01 in 10.0 mi Calm Calm - N/A   Clear
10:35 AM 62.8 °F 52.3 °F 69% 30.00 in 10.0 mi Calm Calm - N/A   Clear
10:55 AM 64.6 °F 51.1 °F 62% 30.01 in 10.0 mi Calm Calm - N/A   Clear
11:15 AM 69.1 °F 51.8 °F 54% 30.00 in 10.0 mi Calm Calm - N/A   Clear
11:35 AM 71.2 °F 52.0 °F 51% 29.99 in 10.0 mi Calm Calm - N/A   Clear
11:55 AM 73.2 °F 52.5 °F 48% 29.99 in 10.0 mi Calm Calm - N/A   Clear
12:15 PM 74.5 °F 50.7 °F 43% 29.98 in 10.0 mi SW 3.5 mph - N/A   Clear
12:55 PM 78.3 °F 48.9 °F 36% 29.96 in 10.0 mi NW 9.2 mph - N/A   Clear
1:15 PM 78.4 °F 48.6 °F 35% 29.95 in 10.0 mi West 5.8 mph - N/A   Clear
1:35 PM 79.2 °F 48.4 °F 34% 29.95 in 10.0 mi WNW 5.8 mph - N/A   Clear
1:55 PM 81.5 °F 48.0 °F 31% 29.94 in 10.0 mi West 9.2 mph - N/A   Clear
2:15 PM 82.0 °F 46.9 °F 29% 29.94 in 10.0 mi WNW 5.8 mph - N/A   Clear
2:35 PM 82.6 °F 46.6 °F 28% 29.93 in 10.0 mi WNW 9.2 mph - N/A   Clear
2:55 PM 82.9 °F 43.5 °F 25% 29.92 in 10.0 mi SW 6.9 mph - N/A   Clear
3:15 PM 84.0 °F 43.0 °F 24% 29.91 in 10.0 mi WSW 4.6 mph - N/A   Clear
3:35 PM 84.2 °F 42.8 °F 23% 29.91 in 10.0 mi SW 5.8 mph - N/A   Clear
3:55 PM 84.4 °F 44.4 °F 25% 29.91 in 10.0 mi SSW 4.6 mph - N/A   Clear
4:15 PM 84.7 °F 45.9 °F 26% 29.91 in 10.0 mi WSW 6.9 mph - N/A   Clear
4:35 PM 84.4 °F 45.7 °F 26% 29.91 in 10.0 mi SW 8.1 mph - N/A   Clear
4:55 PM 84.9 °F 47.3 °F 27% 29.91 in 10.0 mi WNW 4.6 mph - N/A   Clear
5:15 PM 84.7 °F 47.8 °F 28% 29.91 in 10.0 mi SW 4.6 mph - N/A   Clear
5:35 PM 84.9 °F 47.3 °F 27% 29.91 in 10.0 mi West 3.5 mph - N/A   Clear
5:55 PM 82.2 °F 47.8 °F 30% 29.91 in 10.0 mi Calm Calm - N/A   Clear
6:15 PM 84.2 °F 47.3 °F 28% 29.90 in 10.0 mi West 4.6 mph - N/A   Clear
6:35 PM 83.7 °F 47.3 °F 28% 29.90 in 10.0 mi WSW 4.6 mph - N/A   Clear
6:55 PM 82.4 °F 47.8 °F 30% 29.91 in 10.0 mi Calm Calm - N/A   Clear
7:15 PM 79.0 °F 49.3 °F 35% 29.91 in 10.0 mi Calm Calm - N/A   Clear
7:35 PM 75.6 °F 50.0 °F 41% 29.91 in 10.0 mi Calm Calm - N/A   Clear
7:55 PM 75.4 °F 49.8 °F 41% 29.92 in 10.0 mi Calm Calm - N/A   Clear
8:15 PM 72.1 °F 51.3 °F 48% 29.93 in 10.0 mi Calm Calm - N/A   Clear
8:35 PM 69.6 °F 52.5 °F 54% 29.93 in 10.0 mi Calm Calm - N/A   Clear
8:55 PM 70.2 °F 52.9 °F 54% 29.94 in 10.0 mi Calm Calm - N/A   Clear
9:15 PM 68.0 °F 53.8 °F 60% 29.95 in 10.0 mi Calm Calm - N/A   Clear
9:35 PM 66.7 °F 54.1 °F 64% 29.95 in 10.0 mi Calm Calm - N/A   Clear
9:55 PM 65.8 °F 54.7 °F 67% 29.96 in 10.0 mi Calm Calm - N/A   Clear
10:15 PM 65.3 °F 54.7 °F 68% 29.96 in 10.0 mi Calm Calm - N/A   Clear
10:35 PM 64.0 °F 55.4 °F 73% 29.96 in 10.0 mi Calm Calm - N/A   Clear
10:55 PM 64.0 °F 55.4 °F 73% 29.96 in 10.0 mi Calm Calm - N/A   Clear
11:15 PM 63.7 °F 55.8 °F 75% 29.97 in 10.0 mi Calm Calm - N/A   Scattered Clouds
11:35 PM 62.8 °F 55.8 °F 78% 29.96 in 10.0 mi Calm Calm - N/A   Mostly Cloudy
11:55 PM 63.3 °F 55.9 °F 77% 29.96 in 10.0 mi Calm Calm - N/A   Mostly Cloudy